Weather Roundup
Issued by NWS Chicago, IL

Home | Current Version | Previous Version | Graphics & Text | Print | Product List | Glossary On
Versions: 1 2 3 4 5 6 7 8 9 10 11 12 13 14 15 16 17 18 19 20 21 22 23 24 25 26 27 28 29 30 31 32 33 34 35 36 37 38 39 40 41 42 43 44 45 46 47 48 49 50
000
NZUS59 KLOT 160910
HRRLOT

CHICAGO AREA WEATHER ROUNDUP
NATIONAL WEATHER SERVICE CHICAGO/ROMEOVILLE IL
400 AM CDT WED APR 16 2014

NOTE: "FAIR" INDICATES FEW OR NO CLOUDS BELOW 12,000 FEET WITH NO
SIGNIFICANT WEATHER AND/OR OBSTRUCTIONS TO VISIBILITY.

* THESE STATIONS ARE NOT UNDER NWS QUALITY CONTROL. THEY ALSO MAY NOT
  REPORT WEATHER SUCH AS PRECIPITATION OR FOG.

ILZ005-006-012>014-019>023-161000-
NORTHEAST ILLINOIS

CITY           SKY/WX    TMP DP  RH WIND       PRES   REMARKS
OHARE          PTCLDY    26  18  71 S8        30.23S WCI  18
MIDWAY         CLEAR     31  21  66 S8        30.25R WCI  23
AURORA         CLEAR     27  21  78 SE7       30.23S WCI  19
LANSING*       CLEAR     27  19  71 S6        30.27R WCI  21
JOLIET*        CLEAR     29  22  74 SE6       30.25S WCI  23
WAUKEGAN       CLOUDY    29  21  72 S7        30.23R WCI  22
DUPAGE AIRPORT CLEAR     27  20  75 S6        30.22S WCI  20
WHEELING       CLOUDY    28  22  78 S5        30.24F WCI  23
KANKAKEE*      CLEAR     29  23  79 SE7       30.27S WCI  22
MORRIS*        CLEAR     30  22  72 SE7       30.23S WCI  23
LEWIS AIRPORT* CLEAR     28  22  77 S9        30.24F WCI  20
NORTHERLY IS     N/A     33  20  59 S9          N/A  WCI  25
$$

WIZ051-052-058>065-066-070>072-161000-
SOUTHEAST WISCONSIN

CITY           SKY/WX    TMP DP  RH WIND       PRES   REMARKS
MILWAUKEE      PTCLDY    27  22  81 S5        30.24R WCI  22
KENOSHA*       PTCLDY    27  20  75 S3        30.23R
RACINE*        CLEAR     29  22  75 CALM      30.25R
BURLINGTON     PTCLDY    22  21  96 CALM      30.22R
WAUKESHA       MOCLDY    23  21  93 NE3       30.23R
WEST BEND      MOCLDY    23  19  86 CALM      30.22S
$$

INZ001>003-010>013-019-020-161000-
NORTHWEST INDIANA

CITY           SKY/WX    TMP DP  RH WIND       PRES   REMARKS
GARY*          CLEAR     31  21  66 SE6       30.28R WCI  25
MICHIGAN CITY* NOT AVBL
RENSSELAER*    NOT AVBL
VALPARAISO     CLEAR     25  16  68 SE3       30.29R
$$

LMZ740>746-161000-
SOUTHERN LAKE MICHIGAN

STATION/POSITION TIME  SKY/WX   TEMP WIND        PRES    VSBY
                                AIR  DIR/SP/G
                 (UTC)          (F)  (DEG/KT/KT) (MB)    (MI)
HARRISON CRIB    0900            34  190/ 16/ 18   N/A
BURNHAM HARBOR   0900            32  180/  7/ 10   N/A
CALUMET HARBOR   0900            31  160/  6/  8 1025.3S
BURNS HARBOR     NOT AVBL
MICHIGAN CITY    0900            30  130/  8/ 11   N/A
$$

ABBREVIATIONS USED IN REMARKS
   TC - TEMPERATURE IN CELSIUS
  WCI - WIND CHILL INDEX
   HX - HEAT INDEX
  VSB - VISIBILITY
$$


USA.gov is the U.S. government's official web portal to all federal, state and local government web resources and services.